Meteo Giornale » Osservazioni meteo Stati Uniti (USA) » Camarillo

ore: 07:55 - Osservazioni Meteo Camarillo
Lat. 34° 13' N Lon. 119° 5' W Alt. 23 metri s.l.m.

foschia America/Los_Angeles

16 °C

Foschia

Temp. 24 Ore

15 °C

24 °C

Nord

5.5 Km/h

Dew point 13 °C

Umidità 82 %

Visibilità  8 Km

Il sole sorge alle ore 06:12

Il sole tramonta alle ore 19:50

Data e Ora Cielo e Fenomeni T °C DP °C Um. % Pres. hPa Vis. km Vento km/h
Oggi h: 07:55 foschia Foschia 16 13 82 1015 8 N 5.5
Oggi h: 06:55 foschia Foschia 16 13 82 1015 8 N 0
Oggi h: 05:55 foschia Foschia 16 13 82 1014 10 N 0
Oggi h: 04:55 foschia Foschia 15 13 87 1014 10 N 0
Oggi h: 04:08 coperto Coperto 16 13 82 1014 11 N 0
Oggi h: 03:55 coperto Coperto 16 13 82 1014 11 N 0
Oggi h: 03:24 molto_nuvoloso Molto Nuvoloso 16 13 82 1014 13 N 0
Oggi h: 02:55 poco_nuvoloso Poco Nuvoloso 16 13 82 1014 13 N 0
Oggi h: 02:41 nuvoloso Nuvoloso 16 13 82 1014 14 N 0
Oggi h: 01:55 coperto Coperto 16 13 82 1014 14 N 0
Oggi h: 01:24 molto_nuvoloso Molto Nuvoloso 16 13 82 1014 14 N 0
Oggi h: 01:11 poco_nuvoloso Poco Nuvoloso 16 13 82 1014 14 N 5.5
Oggi h: 00:55 sereno Sereno 16 13 82 1014 14 N 0
Oggi h: 00:53 poco_nuvoloso Poco Nuvoloso 16 13 82 1014 14 N 0
Ieri h: 23:55 sereno Sereno 16 13 82 1014 14 N 0
Ieri h: 22:55 sereno Sereno 16 13 82 1014 14 N 0
Ieri h: 21:55 sereno Sereno 17 12 72 1014 10 N 5.5
Ieri h: 20:55 sereno Sereno 17 12 72 1014 10 N 5.5
Ieri h: 19:55 sereno Sereno 18 12 67 1013 10 O/NO 11.1
Ieri h: 18:55 sereno Sereno 20 12 59 1013 10 O/SO 11.1
Ieri h: 17:55 sereno Sereno 21 13 60 1013 10 O/SO 13
Ieri h: 16:55 sereno Sereno 22 12 53 1014 10 O/SO 14.8
Ieri h: 15:55 sereno Sereno 22 13 56 1014 10 O 13
Ieri h: 14:55 sereno Sereno 23 13 53 1015 10 O/SO 20.3
Ieri h: 13:55 sereno Sereno 24 13 50 1015 10 O 18.5
Ieri h: 12:55 sereno Sereno 22 13 56 1015 14 O 18.5
Ieri h: 11:55 sereno Sereno 22 13 56 1016 14 O 14.8
Ieri h: 10:55 sereno Sereno 22 14 60 1016 13 O 11.1
Ieri h: 09:55 sereno Sereno 20 14 68 1016 11 O 9.3
Ieri h: 08:55 foschia Foschia 18 13 72 1016 10 N 5.5